User: anonymous   Login
Location: Unspecified
(0.0000°N, 0.0000°E)
Time: 00:50:23
(UTC+00:00)
Language:

TBA - TO BE ASSIGNED - Orbit

View from above orbital plane
View from above orbital plane
View from above satellite
View from above satellite

Ground track
Ground track

The orbit is defined by the following mean orbital elements,

1 68782U          26145.58335647 +.00000000 +00000-0 -27119-1 0 00005
2 68782  97.2845 182.4430 0001716  83.7197  63.7004 15.59092075    03
Epoch (UTC): 25 May 2026 14:00:01
Eccentricity: 0.0001716
inclination: 97.2845°
perigee height: 389 km
apogee height: 391 km
right ascension of ascending node: 182.4430°
argument of perigee: 83.7197°
revolutions per day: 15.59092075
mean anomaly at epoch: 63.7004°

The dashed part of the orbit path shows where the satellite is in the earth's shadow,  

DLR